Regional Weather Roundup
Issued by NWS Charleston, SC

Current Version | Previous Version | Graphics & Text | Print | Product List | Glossary On
Versions: 1 2 3 4 5 6 7 8 9 10 11 12 13 14 15 16 17 18 19 20 21 22 23 24 25 26 27 28 29 30 31 32 33 34 35 36 37 38 39 40 41 42 43 44 45 46 47 48 49 50
000
ASUS42 KCHS 050712
RWRCHS

REGIONAL WEATHER ROUNDUP
NATIONAL WEATHER SERVICE CHARLESTON SC
300 AM EDT SAT SEP 05 2015

NOTE: "FAIR" INDICATES FEW OR NO CLOUDS BELOW 12,000 FEET WITH NO
SIGNIFICANT WEATHER AND/OR OBSTRUCTIONS TO VISIBILITY.

NOT ALL STATIONS ARE QUALITY CONTROLLED BY THE NATIONAL
WEATHER SERVICE. USE DATA WITH CAUTION...ESPECIALLY
DEWPOINT OBSERVATIONS.

SCZ027-030-031-034>040-042>050-050800-
...SOUTHEAST SOUTH CAROLINA...

CITY           SKY/WX    TMP DP  RH WIND       PRES   REMARKS
N CHARLESTON   MOCLDY    75  73  93 N9        30.01R
WATERFRONT PRK   N/A     78  77  96 N6        29.97S
MOUNT PLEASANT FAIR      75  75 100 CALM      30.01R FOG
JOHNS ISLAND   FAIR      75  75 100 N5        30.01R FOG
PINOPOLIS        N/A     81  70  69 NE7       29.95R
MONCKS CORNER  FAIR      75  70  83 NE3       30.03R
SUMMERVILLE    NOT AVBL
BEAUFORT MCAS  PTCLDY    75  72  90 N7        30.00R
BEAUFORT ARPT  FAIR      77  73  88 CALM      29.99R
HILTON HEAD IS CLEAR     75  75 100 NW3       30.00S
WALTERBORO     PTSUNNY   73  70  88 N3        30.02S
ALLENDALE      FAIR      75  72  88 CALM      30.02S

...SOUTHERN MIDLANDS AND PEE DEE...

CITY           SKY/WX    TMP DP  RH WIND       PRES   REMARKS
GEORGETOWN     NOT AVBL
KINGSTREE      NOT AVBL
ORANGEBURG     CLOUDY    73  64  73 N13       30.05S
BARNWELL       PTSUNNY   75  72  88 NE12      30.04F
AIKEN          FAIR      68  64  88 E13G21    30.08F
MANNING        FAIR      68  66  94 CALM      30.03S
COLUMBIA       LGT RAIN  70  66  87 S8        30.04F
SUMTER         CLOUDY    70  68  94 W6        30.04R
FLORENCE       PTCLDY    72  69  90 N5        30.04R
MYRTLE BEACH   MOCLDY    73  64  73 N6        30.03F
N MYRTLE BEACH MOCLDY    72  68  87 N3        30.01S

$$

GAZ063-065-086>088-099>101-113>116-118-119-134>141-150-050800-
...SOUTHEAST GEORGIA...

CITY           SKY/WX    TMP DP  RH WIND       PRES   REMARKS
SAVANNAH ARPT  CLEAR     72  70  93 N6        29.99S
HUNTER AAF     CLEAR     74  74 100 N1        29.96S
FORT STEWART   CLEAR     73  71  93 CALM      29.97S
STATESBORO     CLEAR     71  32  24 CALM      30.01S
SYLVANIA       NOT AVBL
CLAXTON        NOT AVBL

...CSRA...CENTRAL AND FAR SOUTHEAST GEORGIA...

CITY           SKY/WX    TMP DP  RH WIND       PRES   REMARKS
THOMSON        CLOUDY    73  73  99 CALM      30.08F
AUGUSTA-BUSH   CLOUDY    73  70  90 NE8       30.03F
AUGUSTA-DANIEL CLOUDY    74  69  85 NE9       30.06R
SWAINSBORO     FAIR      72  70  94 NE8       30.02S
VIDALIA        CLEAR     73  72  94 CALM      30.00S
EASTMAN        FAIR      73  73 100 CALM      30.01F
HAZLEHURST     FAIR      74  74 100 CALM      29.98S
ALMA           CLEAR     71  70  96 CALM      29.98F FOG
WAYCROSS       CLEAR     74  74 100 CALM      29.98S
JESUP          FAIR      73  73 100 CALM      29.98F
BAXLEY         FAIR      72  72 100 CALM      29.99R
BRUNSWICK      CLEAR     72  72 100 CALM      29.98S
SAINT SIMONS   PTCLDY    76  73  91 CALM      29.96F

$$

SCZ027-028-034-036>038-045-046-048>050-GAZ119-141-050800-
...LAKE AND SUPPLEMENTAL COASTAL OBSERVATIONS...

STATION/POSITION TIME  TEMP    WIND        PRES    WAVE   SWELL
                       AIR SEA DIR/SP/G            HT/PER HT/PER/DIR
                 (UTC) (F)     (DEG/KT/KT) (MB)    (FT/S) (FT/S/D)
UPR LAKE MARION  NOT AVBL
WINYAH BAY       NOT AVBL
LAKE MURRAY      0600   72     100/ 20/ 28 1018.3S
ACE BASIN NERRS  NOT AVBL
FORT PULASKI     0600   78 84   10/  3/  4 1015.7F
SAPELO ISLAND    0600   76     360/  1     1015.0F

$$

ANZ835-935-AMZ111-154-330-350-352-354-370-450-454-472-050800-
...C-MAN AND BUOY OBSERVATIONS...

STATION/POSITION TIME  TEMP    WIND        PRES    WAVE   SWELL
                       AIR SEA DIR/SP/G            HT/PER HT/PER/DIR
                 (UTC) (F)     (DEG/KT/KT) (MB)    (FT/S) (FT/S/D)
BUOY 41004       0650   82 84   30/  4/  6 1014.9F   1/11   2/11
BUOY 41008       0650   82 84   CALM  /  2 1014.9F   1
FOLLY BEACH CMAN 0700   78     350/  7/ 10 1016.1R
CAPERS NEARSHORE 0608   81     360/ 10/ 16 1015.6F
FRIPP NEARSHORE  0600   82      60/  4/  4 1015.0F


STATION/POSITION TIME  TEMP    WIND        PRES    WAVE   SWELL
                       AIR SEA DIR/SP/G            HT/PER HT/PER/DIR
                 (UTC) (F)     (DEG/KT/KT) (MB)    (FT/S) (FT/S/D)
5E ST. MARYS GA  0621      86                N/A     1/12
FRYING PAN BUOY  0650   82 82  360/ 10/ 12 1015.8F   1/13
BUOY 41025       0650   83 83   70/ 17/ 19 1014.9R   4/ 5
CAPE LOOKOUT NC  0600   81      40/ 18/ 19 1015.4S
BUOY 41002       0650   82 84   40/ 10/ 12 1013.7F   1/11   2/ 60/11
BUOY 41010       0620   83 85   40/ 10/ 12 1014.1F
ST AUGUSTINE FL  0700   77 85  310/  4/  4 1015.1F


$$



USA.gov is the U.S. government's official web portal to all federal, state and local government web resources and services.